sat.trackr.live / text

‹ back to catalog

HULIANWANG JISHU SHIYAN*

NORAD 58692 · 2023-212B

PAYLOAD ACTIVE UNKNOWN

§ Identity

Operator
Country
PRC
Launch date
2023-12-30
Launch site
JSC
Launch vehicle
Mass (kg)
RCS (m²)

External: N2YO · Heavens-Above · Gunter

§ Orbital elements

Epoch: 2026-09-21T18:29:43.373760Z

Period
107.35 min
Inclination
49.9995°
Eccentricity
0.0000705
Mean motion
13.41460719 rev/d
Perigee alt
1,103.3 km
Apogee alt
1,104.4 km
Semi-major
7,482.0 km
B*
2.7739e-5
RAAN
350.2341°
Arg perigee
63.3273°
Mean anomaly
296.7676°
Rev number
13,421

§ Raw data

HULIANWANG JISHU SHIYAN*1 58692U 23212B   26264.77064090 -.00000113  00000+0  27739-4 0  99902 58692  49.9995 350.2341 0000705  63.3273 296.7676 13.41460719134211

JSON: /api/v1/satellites/58692 · /tle

For live sub-satellite position, see the globe view (requires WebGL).

§ Visibility from observer

Set your observer location to see the next 7 days of passes ≥ 10°. The values pass through the URL so the page stays shareable.

No JS? Fill the form by hand. The geolocation button needs JavaScript.